Hourly Weather Chalin

Today, 25 June, Friday

Time Temperature Precipitation Wind Pressure Humidity
00:00 +14°C° 0 mm 1 mps 756 mmHg 96%
01:00 +14°C° 0 mm 1 mps 756 mmHg 96%
02:00 +13°C° 0 mm 1 mps 756 mmHg 96%
03:00 +13°C° 0 mm 1 mps 756 mmHg 96%
04:00 +13°C° 0 mm 2 mps 756 mmHg 96%
05:00 +15°C° 0 mm 2 mps 756 mmHg 90%
06:00 +17°C° 0 mm 2 mps 756 mmHg 84%
07:00 +18°C° 0 mm 2 mps 756 mmHg 77%
08:00 +19°C° 0 mm 2 mps 756 mmHg 71%
09:00 +21°C° 0 mm 2 mps 756 mmHg 65%
10:00 +23°C° 0 mm 2 mps 756 mmHg 60%
11:00 +23°C° 0.1 mm 1 mps 756 mmHg 58%
12:00 +24°C° 0.1 mm 1 mps 756 mmHg 56%
13:00 +25°C° 0.1 mm 1 mps 756 mmHg 54%
14:00 +24°C° 0.6 mm 1 mps 756 mmHg 61%
15:00 +23°C° 0.6 mm 2 mps 756 mmHg 68%
16:00 +21°C° 0.6 mm 2 mps 756 mmHg 75%
17:00 +21°C° 0.5 mm 2 mps 755 mmHg 78%
18:00 +20°C° 0.5 mm 2 mps 755 mmHg 80%
19:00 +20°C° 0.5 mm 2 mps 755 mmHg 83%
20:00 +19°C° 0.4 mm 2 mps 756 mmHg 86%
21:00 +18°C° 0.4 mm 2 mps 756 mmHg 89%
22:00 +17°C° 0.4 mm 2 mps 757 mmHg 92%
23:00 +16°C° 0 mm 2 mps 757 mmHg 93%

Tomorrow, 26 June, Saturday

Time Temperature Precipitation Wind Pressure Humidity
00:00 +16°C° 0 mm 2 mps 757 mmHg 94%
01:00 +15°C° 0 mm 2 mps 757 mmHg 94%
02:00 +15°C° 0 mm 2 mps 757 mmHg 95%
03:00 +15°C° 0 mm 2 mps 757 mmHg 95%
04:00 +14°C° 0 mm 2 mps 757 mmHg 95%
05:00 +16°C° 0 mm 2 mps 757 mmHg 90%
06:00 +18°C° 0 mm 1 mps 758 mmHg 84%
07:00 +19°C° 0 mm 1 mps 758 mmHg 79%
08:00 +20°C° 0 mm 2 mps 758 mmHg 70%
09:00 +21°C° 0 mm 2 mps 758 mmHg 61%
10:00 +24°C° 0 mm 2 mps 758 mmHg 52%
11:00 +25°C° 0 mm 2 mps 758 mmHg 48%
12:00 +25°C° 0 mm 3 mps 758 mmHg 43%
13:00 +26°C° 0 mm 3 mps 757 mmHg 39%
14:00 +26°C° 0 mm 3 mps 757 mmHg 39%
15:00 +26°C° 0 mm 3 mps 757 mmHg 39%
16:00 +26°C° 0 mm 3 mps 757 mmHg 39%
17:00 +25°C° 0 mm 3 mps 757 mmHg 44%
18:00 +24°C° 0 mm 2 mps 757 mmHg 49%
19:00 +23°C° 0 mm 2 mps 757 mmHg 54%
20:00 +20°C° 0 mm 2 mps 757 mmHg 58%
21:00 +18°C° 0 mm 2 mps 757 mmHg 63%
22:00 +17°C° 0 mm 2 mps 758 mmHg 67%
23:00 +16°C° 0 mm 2 mps 758 mmHg 70%

Day after tomorrow, 27 June, Sunday

Time Temperature Precipitation Wind Pressure Humidity
00:00 +15°C° 0 mm 2 mps 758 mmHg 73%
01:00 +15°C° 0 mm 1 mps 758 mmHg 76%
02:00 +15°C° 0 mm 1 mps 758 mmHg 77%
03:00 +14°C° 0 mm 1 mps 758 mmHg 78%
04:00 +14°C° 0 mm 1 mps 758 mmHg 79%
05:00 +16°C° 0 mm 1 mps 758 mmHg 73%
06:00 +18°C° 0 mm 1 mps 758 mmHg 67%
07:00 +20°C° 0 mm 1 mps 758 mmHg 61%
08:00 +20°C° 0 mm 0 mps 758 mmHg 56%
09:00 +21°C° 0 mm 0 mps 758 mmHg 52%
10:00 +23°C° 0 mm 0 mps 758 mmHg 47%
11:00 +26°C° 0 mm 1 mps 757 mmHg 44%
12:00 +27°C° 0 mm 1 mps 757 mmHg 42%
13:00 +28°C° 0 mm 1 mps 757 mmHg 40%
14:00 +28°C° 0 mm 1 mps 757 mmHg 39%
15:00 +28°C° 0 mm 1 mps 756 mmHg 38%
16:00 +28°C° 0 mm 1 mps 756 mmHg 38%
17:00 +27°C° 0 mm 1 mps 756 mmHg 45%
18:00 +26°C° 0 mm 1 mps 756 mmHg 51%
19:00 +24°C° 0 mm 1 mps 756 mmHg 58%
20:00 +23°C° 0 mm 1 mps 756 mmHg 60%
21:00 +22°C° 0 mm 1 mps 756 mmHg 63%
22:00 +21°C° 0 mm 1 mps 756 mmHg 65%
23:00 +20°C° 0 mm 1 mps 756 mmHg 67%

28 June, Monday

Time Temperature Precipitation Wind Pressure Humidity
00:00 +19°C° 0 mm 1 mps 756 mmHg 70%
01:00 +19°C° 0 mm 1 mps 756 mmHg 72%
02:00 +19°C° 0 mm 1 mps 756 mmHg 73%
03:00 +18°C° 0 mm 1 mps 756 mmHg 75%
04:00 +18°C° 0 mm 1 mps 756 mmHg 76%
05:00 +20°C° 0 mm 1 mps 756 mmHg 71%
06:00 +21°C° 0 mm 1 mps 756 mmHg 66%
07:00 +23°C° 0 mm 1 mps 757 mmHg 62%
08:00 +25°C° 0 mm 1 mps 756 mmHg 57%
09:00 +26°C° 0 mm 1 mps 756 mmHg 52%
10:00 +28°C° 0 mm 2 mps 756 mmHg 47%
11:00 +29°C° 0 mm 2 mps 756 mmHg 44%
12:00 +29°C° 0 mm 2 mps 756 mmHg 42%
13:00 +30°C° 0 mm 3 mps 756 mmHg 39%
14:00 +30°C° 0 mm 3 mps 755 mmHg 41%
15:00 +30°C° 0 mm 3 mps 755 mmHg 42%
16:00 +29°C° 0 mm 3 mps 755 mmHg 44%
17:00 +28°C° 0 mm 3 mps 755 mmHg 49%
18:00 +27°C° 0 mm 2 mps 755 mmHg 53%
19:00 +26°C° 0 mm 2 mps 754 mmHg 58%
20:00 +25°C° 0 mm 2 mps 754 mmHg 61%
21:00 +24°C° 0 mm 2 mps 754 mmHg 63%
22:00 +21°C° 0 mm 2 mps 754 mmHg 66%
23:00 +21°C° 0 mm 2 mps 754 mmHg 68%

29 June, Tuesday

Time Temperature Precipitation Wind Pressure Humidity
00:00 +20°C° 0 mm 2 mps 754 mmHg 70%
01:00 +19°C° 0 mm 2 mps 754 mmHg 72%
02:00 +19°C° 0 mm 2 mps 754 mmHg 73%
03:00 +19°C° 0 mm 2 mps 753 mmHg 74%
04:00 +18°C° 0 mm 2 mps 753 mmHg 75%
05:00 +20°C° 0 mm 3 mps 753 mmHg 69%
06:00 +21°C° 0 mm 3 mps 753 mmHg 64%
07:00 +23°C° 0 mm 4 mps 753 mmHg 59%
08:00 +25°C° 0 mm 4 mps 753 mmHg 54%
09:00 +27°C° 0 mm 5 mps 752 mmHg 49%
10:00 +28°C° 0 mm 6 mps 752 mmHg 45%
11:00 +29°C° 0 mm 5 mps 752 mmHg 44%
12:00 +30°C° 0 mm 5 mps 752 mmHg 44%
13:00 +30°C° 0 mm 4 mps 751 mmHg 43%
14:00 +32°C° 0 mm 4 mps 751 mmHg 45%
15:00 +32°C° 0 mm 4 mps 751 mmHg 46%
16:00 +31°C° 0 mm 3 mps 750 mmHg 47%
17:00 +29°C° 0.2 mm 3 mps 751 mmHg 54%
18:00 +28°C° 0.2 mm 3 mps 751 mmHg 61%
19:00 +27°C° 0.2 mm 2 mps 751 mmHg 68%
20:00 +25°C° 0.8 mm 2 mps 751 mmHg 76%
21:00 +23°C° 0.8 mm 2 mps 751 mmHg 83%
22:00 +21°C° 0.8 mm 1 mps 751 mmHg 90%
23:00 +21°C° 0 mm 1 mps 751 mmHg 91%

30 June, Wednesday

Time Temperature Precipitation Wind Pressure Humidity
00:00 +20°C° 0 mm 2 mps 751 mmHg 93%
01:00 +19°C° 0 mm 2 mps 751 mmHg 94%
02:00 +19°C° 0.1 mm 2 mps 751 mmHg 95%
03:00 +19°C° 0.1 mm 2 mps 751 mmHg 96%
04:00 +18°C° 0.1 mm 2 mps 751 mmHg 98%
05:00 +19°C° 0.6 mm 2 mps 751 mmHg 95%
06:00 +19°C° 0.6 mm 3 mps 751 mmHg 93%
07:00 +20°C° 0.6 mm 3 mps 751 mmHg 91%
08:00 +20°C° 0.5 mm 3 mps 751 mmHg 90%
09:00 +20°C° 0.5 mm 3 mps 751 mmHg 88%
10:00 +20°C° 0.5 mm 3 mps 751 mmHg 87%
11:00 +20°C° 0.3 mm 3 mps 752 mmHg 88%
12:00 +20°C° 0.3 mm 3 mps 752 mmHg 89%
13:00 +20°C° 0.3 mm 3 mps 752 mmHg 89%
14:00 +20°C° 0 mm 3 mps 753 mmHg 86%
15:00 +21°C° 0 mm 4 mps 753 mmHg 83%
16:00 +21°C° 0 mm 4 mps 753 mmHg 80%
17:00 +21°C° 0.1 mm 3 mps 753 mmHg 80%
18:00 +21°C° 0.1 mm 3 mps 753 mmHg 81%
19:00 +20°C° 0.1 mm 3 mps 753 mmHg 81%
20:00 +19°C° 0 mm 3 mps 753 mmHg 86%
21:00 +18°C° 0 mm 2 mps 754 mmHg 90%
22:00 +17°C° 0 mm 2 mps 754 mmHg 95%
23:00 +17°C° 0 mm 2 mps 754 mmHg 96%
Show more

We Need Your Consent

Meteoprog and our Service Providers may store and access personal data such as cookies, device identifiers or other similar technologies on your device and process such data to personalise content and ads, as well as provide social media features and to analyse the traffic.

  • Store and/or access information on your device

    Cookies, device identifiers or other information can be stored or accessed on your device for the purposes indicated above.

  • Personalised ads and content, ad and content measurement, audience insights, and products development

    Ads and content can be personalised based on a profile. More data can be added to better personalise ads and content. Ad and content performance can be measured. Insights about the audience who saw the ads and content can be derived. Such data can be used to develop or improve user’s experience, systems and software.

By clicking ‘I Agree’ you will allow the use of indicated cookies, device identifiers, web beacons or other similar technologies. Your settings can be changed in the browser on your device.

For certain purposes, legitimate interests may be relied on, rather than consent. You can read more about this in our Privacy and Cookie Policy.